Regional Weather Roundup
Issued by NWS

Home | Current Version | Previous Version | Text Only | Print | Product List | Glossary Off
Versions: 1 2 3 4 5 6 7 8 9 10 11 12 13 14 15 16 17 18 19 20 21 22 23 24 25 26 27 28 29 30 31 32 33 34 35 36 37 38 39 40 41 42 43 44 45 46 47 48 49 50

000
ASUS43 KFSD 061102
RWRSD

WEATHER ROUNDUP FOR SOUTH DAKOTA
NATIONAL WEATHER SERVICE SIOUX FALLS SD
600 AM CDT WED MAY 06 2015

NOTE: "FAIR" INDICATES FEW OR NO CLOUDS BELOW 12,000 FEET WITH NO
SIGNIFICANT WEATHER AND/OR OBSTRUCTIONS TO VISIBILITY.


SDZ001>005-009-010-012>017-061200-
NORTHWEST AND NORTH CENTRAL SOUTH DAKOTA

CITY           SKY/WX    TMP DP  RH WIND       PRES   REMARKS
BUFFALO          N/A     54  51  90 SE15      29.66S
FAITH            N/A     55  53  93 E10       29.75F
MOBRIDGE       LGT RAIN  60  57  89 SE13      29.78F FOG
$$

SDZ012>016-024>037-041>051-057-063-072>074-061200-
SOUTHWEST AND SOUTH CENTRAL SOUTH DAKOTA

CITY           SKY/WX    TMP DP  RH WIND       PRES   REMARKS
RAPID CTY ARPT LGT RAIN  53  53 100 SE12      29.73F FOG
PIERRE         CLOUDY    59  56  89 SE12      29.76F
CUSTER         LGT RAIN  47  46  97 E6        29.76F VSB 3/4
ELLSWORTH AFB  LGT RAIN  54  54 100 SE10      29.72
PHILIP         LGT RAIN  56  55  97 E8        29.73F FOG
PINE RIDGE     LGT RAIN  53  51  93 E6        29.72S FOG
WINNER         CLOUDY    61  55  81 SE15      29.78S
$$

SDZ004>011-016>023-039-040-061200-
NORTHEAST SOUTH DAKOTA

CITY           SKY/WX    TMP DP  RH WIND       PRES   REMARKS
ABERDEEN       LGT RAIN  60  57  89 SE12      29.86F
WATERTOWN      CLOUDY    58  56  93 SE10G17   29.91F
BROOKINGS      CLOUDY    61  59  94 SE18      29.93S
SISSETON         N/A     55  55 100 S16       29.92F
$$

SDZ017-020-022-023-036>040-048>070-061200-
SOUTHEAST SOUTH DAKOTA

CITY           SKY/WX    TMP DP  RH WIND       PRES   REMARKS
SIOUX FALLS    CLOUDY    63  58  83 SE12      29.90S
HURON          CLOUDY    62  59  90 SE10G21   29.84F
MITCHELL       CLOUDY    63  59  87 SE16      29.85S
YANKTON        MOCLDY    63  57  82 SE9       29.86S
$$

ABBREVIATIONS USED IN REMARKS
   TC - TEMPERATURE IN CELSIUS
  WCI - WIND CHILL INDEX
   HX - HEAT INDEX
  VSB - VISIBILITY



USA.gov is the U.S. government's official web portal to all federal, state and local government web resources and services.